When you browse on this site, cookies collect data to enhance your experience and personalize the content and advertising you see.
Visit our Privacy Policy to learn more. By continuing to use the site, you agree to this use of cookies and data.
  • In Hungary
  • List of Countries
  • For 7 days
  • Water Temperature
  • Satellite Maps
  • Weather Map
  • News
  • Weather Widgets
  • user-avatar
    Login

    Hourly Weather Obora

    Today, 27 May, Monday

    Time Temperature Precipitation Wind Pressure Humidity
    00:00 +15°C° 0 mm 2 mps 744 mmHg 82%
    01:00 +13°C° 0 mm 3 mps 744 mmHg 82%
    02:00 +13°C° 0 mm 3 mps 743 mmHg 82%
    03:00 +13°C° 0 mm 3 mps 743 mmHg 82%
    04:00 +13°C° 0 mm 3 mps 743 mmHg 82%
    05:00 +14°C° 0 mm 3 mps 743 mmHg 77%
    06:00 +17°C° 0 mm 4 mps 743 mmHg 72%
    07:00 +19°C° 0 mm 4 mps 743 mmHg 67%
    08:00 +20°C° 0 mm 4 mps 743 mmHg 62%
    09:00 +21°C° 0 mm 5 mps 743 mmHg 56%
    10:00 +23°C° 0 mm 5 mps 743 mmHg 50%
    11:00 +23°C° 0 mm 5 mps 743 mmHg 49%
    12:00 +25°C° 0 mm 4 mps 742 mmHg 47%
    13:00 +26°C° 0 mm 4 mps 742 mmHg 45%
    14:00 +26°C° 0 mm 3 mps 742 mmHg 45%
    15:00 +26°C° 0 mm 3 mps 742 mmHg 46%
    16:00 +26°C° 0 mm 2 mps 741 mmHg 46%
    17:00 +25°C° 0 mm 2 mps 741 mmHg 54%
    18:00 +23°C° 0 mm 2 mps 741 mmHg 62%
    19:00 +21°C° 0 mm 2 mps 741 mmHg 70%
    20:00 +20°C° 0.1 mm 1 mps 741 mmHg 76%
    21:00 +19°C° 0.1 mm 1 mps 740 mmHg 81%
    22:00 +18°C° 0.1 mm 1 mps 740 mmHg 86%
    23:00 +18°C° 0.2 mm 1 mps 740 mmHg 88%

    Tomorrow, 28 May, Tuesday

    Time Temperature Precipitation Wind Pressure Humidity
    00:00 +16°C° 0.2 mm 1 mps 740 mmHg 90%
    01:00 +15°C° 0.2 mm 0 mps 739 mmHg 91%
    02:00 +16°C° 2 mm 1 mps 739 mmHg 93%
    03:00 +16°C° 2 mm 1 mps 739 mmHg 95%
    04:00 +15°C° 2 mm 1 mps 738 mmHg 97%
    05:00 +15°C° 2.8 mm 2 mps 738 mmHg 97%
    06:00 +15°C° 2.8 mm 2 mps 738 mmHg 97%
    07:00 +15°C° 2.8 mm 2 mps 738 mmHg 97%
    08:00 +14°C° 2.1 mm 3 mps 738 mmHg 97%
    09:00 +14°C° 2.1 mm 3 mps 739 mmHg 96%
    10:00 +14°C° 2.1 mm 4 mps 739 mmHg 96%
    11:00 +13°C° 1.9 mm 4 mps 739 mmHg 96%
    12:00 +13°C° 1.9 mm 5 mps 739 mmHg 95%
    13:00 +13°C° 1.9 mm 6 mps 739 mmHg 95%
    14:00 +12°C° 1.9 mm 5 mps 740 mmHg 95%
    15:00 +12°C° 1.9 mm 5 mps 740 mmHg 94%
    16:00 +10°C° 1.9 mm 5 mps 740 mmHg 94%
    17:00 +11°C° 0.6 mm 4 mps 741 mmHg 94%
    18:00 +11°C° 0.6 mm 4 mps 741 mmHg 94%
    19:00 +11°C° 0.6 mm 3 mps 742 mmHg 94%
    20:00 +11°C° 0 mm 3 mps 742 mmHg 93%
    21:00 +10°C° 0 mm 3 mps 743 mmHg 93%
    22:00 +10°C° 0 mm 3 mps 744 mmHg 92%
    23:00 +9°C° 0 mm 3 mps 744 mmHg 92%

    Day after tomorrow, 29 May, Wednesday

    Time Temperature Precipitation Wind Pressure Humidity
    00:00 +8°C° 0 mm 2 mps 744 mmHg 92%
    01:00 +7°C° 0 mm 2 mps 745 mmHg 92%
    02:00 +7°C° 0 mm 2 mps 745 mmHg 92%
    03:00 +6°C° 0 mm 2 mps 746 mmHg 92%
    04:00 +6°C° 0 mm 2 mps 746 mmHg 93%
    05:00 +7°C° 0 mm 2 mps 747 mmHg 89%
    06:00 +8°C° 0 mm 2 mps 748 mmHg 85%
    07:00 +9°C° 0 mm 3 mps 748 mmHg 80%
    08:00 +11°C° 0 mm 3 mps 748 mmHg 73%
    09:00 +12°C° 0 mm 3 mps 749 mmHg 66%
    10:00 +14°C° 0 mm 3 mps 749 mmHg 58%
    11:00 +16°C° 0 mm 3 mps 749 mmHg 55%
    12:00 +16°C° 0 mm 3 mps 749 mmHg 52%
    13:00 +17°C° 0 mm 3 mps 749 mmHg 49%
    14:00 +17°C° 0 mm 3 mps 749 mmHg 49%
    15:00 +18°C° 0 mm 3 mps 749 mmHg 49%
    16:00 +18°C° 0 mm 3 mps 749 mmHg 49%
    17:00 +17°C° 0 mm 2 mps 749 mmHg 56%
    18:00 +15°C° 0 mm 2 mps 749 mmHg 62%
    19:00 +14°C° 0 mm 1 mps 749 mmHg 69%
    20:00 +13°C° 0 mm 1 mps 750 mmHg 71%
    21:00 +12°C° 0 mm 1 mps 750 mmHg 74%
    22:00 +11°C° 0 mm 1 mps 750 mmHg 76%
    23:00 +10°C° 0 mm 1 mps 751 mmHg 78%

    30 May, Thursday

    Time Temperature Precipitation Wind Pressure Humidity
    00:00 +8°C° 0 mm 0 mps 751 mmHg 81%
    01:00 +8°C° 0 mm 0 mps 751 mmHg 83%
    02:00 +8°C° 0 mm 0 mps 751 mmHg 84%
    03:00 +7°C° 0 mm 0 mps 751 mmHg 85%
    04:00 +7°C° 0 mm 0 mps 751 mmHg 86%
    05:00 +10°C° 0 mm 1 mps 751 mmHg 81%
    06:00 +12°C° 0 mm 1 mps 751 mmHg 75%
    07:00 +13°C° 0 mm 2 mps 751 mmHg 70%
    08:00 +15°C° 0 mm 2 mps 751 mmHg 64%
    09:00 +17°C° 0 mm 2 mps 751 mmHg 57%
    10:00 +18°C° 0 mm 2 mps 751 mmHg 51%
    11:00 +19°C° 0 mm 2 mps 751 mmHg 49%
    12:00 +20°C° 0 mm 2 mps 750 mmHg 47%
    13:00 +21°C° 0 mm 2 mps 750 mmHg 44%
    14:00 +23°C° 0 mm 2 mps 750 mmHg 45%
    15:00 +23°C° 0 mm 2 mps 750 mmHg 46%
    16:00 +23°C° 0 mm 2 mps 750 mmHg 47%
    17:00 +21°C° 0 mm 2 mps 750 mmHg 56%
    18:00 +19°C° 0 mm 2 mps 750 mmHg 65%
    19:00 +18°C° 0 mm 2 mps 750 mmHg 74%
    20:00 +17°C° 0.1 mm 2 mps 750 mmHg 78%
    21:00 +15°C° 0.1 mm 2 mps 750 mmHg 82%
    22:00 +14°C° 0.1 mm 2 mps 750 mmHg 86%
    23:00 +14°C° 0 mm 2 mps 750 mmHg 89%

    31 May, Friday

    Time Temperature Precipitation Wind Pressure Humidity
    00:00 +14°C° 0 mm 2 mps 750 mmHg 91%
    01:00 +13°C° 0 mm 2 mps 750 mmHg 93%
    02:00 +13°C° 0 mm 2 mps 750 mmHg 94%
    03:00 +13°C° 0 mm 2 mps 749 mmHg 94%
    04:00 +12°C° 0 mm 2 mps 749 mmHg 94%
    05:00 +14°C° 0 mm 2 mps 749 mmHg 90%
    06:00 +14°C° 0 mm 3 mps 749 mmHg 86%
    07:00 +17°C° 0 mm 3 mps 749 mmHg 82%
    08:00 +18°C° 0.5 mm 3 mps 749 mmHg 81%
    09:00 +19°C° 0.5 mm 4 mps 749 mmHg 80%
    10:00 +20°C° 0.5 mm 4 mps 749 mmHg 79%
    11:00 +20°C° 0.8 mm 5 mps 748 mmHg 78%
    12:00 +20°C° 0.8 mm 5 mps 748 mmHg 78%
    13:00 +20°C° 0.8 mm 5 mps 748 mmHg 77%
    14:00 +19°C° 0.3 mm 6 mps 748 mmHg 79%
    15:00 +19°C° 0.4 mm 6 mps 748 mmHg 81%
    16:00 +17°C° 0.4 mm 6 mps 748 mmHg 83%
    17:00 +17°C° 0.3 mm 6 mps 749 mmHg 85%
    18:00 +16°C° 0.3 mm 5 mps 749 mmHg 88%
    19:00 +15°C° 0.3 mm 5 mps 749 mmHg 90%
    20:00 +13°C° 0 mm 5 mps 750 mmHg 90%
    21:00 +12°C° 0 mm 5 mps 751 mmHg 90%
    22:00 +10°C° 0 mm 5 mps 751 mmHg 90%
    23:00 +10°C° 0 mm 5 mps 752 mmHg 88%

    1 June, Saturday

    Time Temperature Precipitation Wind Pressure Humidity
    00:00 +9°C° 0 mm 5 mps 752 mmHg 87%
    01:00 +9°C° 0 mm 5 mps 753 mmHg 85%
    02:00 +8°C° 0 mm 5 mps 753 mmHg 83%
    03:00 +7°C° 0 mm 5 mps 753 mmHg 81%
    04:00 +7°C° 0 mm 5 mps 754 mmHg 79%
    05:00 +7°C° 0 mm 5 mps 754 mmHg 75%
    06:00 +8°C° 0 mm 5 mps 754 mmHg 71%
    07:00 +9°C° 0 mm 5 mps 755 mmHg 67%
    08:00 +12°C° 0 mm 5 mps 755 mmHg 62%
    09:00 +14°C° 0 mm 5 mps 755 mmHg 58%
    10:00 +15°C° 0 mm 5 mps 755 mmHg 53%
    11:00 +16°C° 0 mm 5 mps 755 mmHg 50%
    12:00 +17°C° 0 mm 5 mps 755 mmHg 48%
    13:00 +19°C° 0 mm 5 mps 755 mmHg 45%
    14:00 +19°C° 0 mm 5 mps 755 mmHg 45%
    15:00 +19°C° 0 mm 5 mps 755 mmHg 46%
    16:00 +19°C° 0 mm 5 mps 755 mmHg 46%
    17:00 +18°C° 0 mm 4 mps 755 mmHg 52%
    18:00 +17°C° 0 mm 3 mps 755 mmHg 58%
    19:00 +16°C° 0 mm 3 mps 755 mmHg 64%
    20:00 +13°C° 0 mm 3 mps 756 mmHg 67%
    21:00 +12°C° 0 mm 3 mps 756 mmHg 69%
    22:00 +10°C° 0 mm 3 mps 756 mmHg 72%
    23:00 +9°C° 0 mm 2 mps 756 mmHg 75%
    Show more